This is the latest recevied weather packets stored in our database for station/object OK4ZAW-16. If no packets are shown the sender has not sent any weather packets the latest 10 day(s).
| Time | Temp. | Humidity | Pressure | Rain* | Wind** | Luminosity | Snow |
|---|---|---|---|---|---|---|---|
| 1777643191 | 18.89° C | 40% | 1028.6 hPa | - | - | 150 W/m² | - |
| 1777642774 | 18.33° C | 43% | 1028.7 hPa | - | - | 150 W/m² | - |
| 1777642356 | 17.22° C | 48% | 1028.9 hPa | - | - | 150 W/m² | - |
| 1777641939 | 15.56° C | 50% | 1028.9 hPa | - | - | 150 W/m² | - |
| 1777641522 | 15.56° C | 52% | 1028.9 hPa | - | - | 150 W/m² | - |
| 1777641105 | 15.56° C | 51% | 1028.9 hPa | - | - | 150 W/m² | - |
| 1777640688 | 16.11° C | 51% | 1028.9 hPa | - | - | 150 W/m² | - |
| 1777640270 | 16.11° C | 53% | 1029 hPa | - | - | 150 W/m² | - |
| 1777639853 | 16.11° C | 51% | 1028.9 hPa | - | - | 150 W/m² | - |
| 1777639436 | 15.56° C | 51% | 1029 hPa | - | - | 150 W/m² | - |
| 1777639019 | 16.11° C | 52% | 1029.1 hPa | - | - | 150 W/m² | - |
| 1777638601 | 15.56° C | 52% | 1029.2 hPa | - | - | 150 W/m² | - |
| 1777638184 | 15° C | 51% | 1029.2 hPa | - | - | 150 W/m² | - |
| 1777637767 | 15.56° C | 53% | 1029.2 hPa | - | - | 150 W/m² | - |
| 1777637350 | 15° C | 54% | 1029.3 hPa | - | - | 150 W/m² | - |
| 1777636933 | 14.44° C | 54% | 1029.3 hPa | - | - | 150 W/m² | - |
| 1777636516 | 14.44° C | 55% | 1029.4 hPa | - | - | 150 W/m² | - |
| 1777636098 | 14.44° C | 55% | 1029.5 hPa | - | - | 150 W/m² | - |
| 1777635681 | 14.44° C | 53% | 1029.4 hPa | - | - | 150 W/m² | - |
| 1777635264 | 14.44° C | 53% | 1029.4 hPa | - | - | 150 W/m² | - |
| 1777634847 | 15° C | 56% | 1029.4 hPa | - | - | 150 W/m² | - |
| 1777634430 | 13.89° C | 57% | 1029.5 hPa | - | - | 150 W/m² | - |
| 1777633596 | 13.33° C | 56% | 1029.6 hPa | - | - | 150 W/m² | - |
| 1777633179 | 13.33° C | 55% | 1029.6 hPa | - | - | 150 W/m² | - |
| 1777632762 | 13.33° C | 56% | 1029.7 hPa | - | - | 150 W/m² | - |
* Rain since midnight (hover to see other rain measurements)
** Current wind speed in m/s (hover to see current wind gust speed)